Regional Weather Roundup
Issued by NWS

Home | Current Version | Previous Version | Graphics & Text | Print | Product List | Glossary On
Versions: 1 2 3 4 5 6 7 8 9 10 11 12 13 14 15 16 17 18 19 20 21 22 23 24 25 26 27 28 29 30 31 32 33 34 35 36 37 38 39 40 41 42 43 44 45 46 47 48 49 50
000
ASUS43 KBIS 021702
RWRND

NORTH DAKOTA REGIONAL WEATHER ROUNDUP
NATIONAL WEATHER SERVICE BISMARCK ND
1200 PM CDT THU JUL 02 2015

NOTE: "FAIR" INDICATES FEW OR NO CLOUDS BELOW 12,000 FEET WITH NO
SIGNIFICANT WEATHER AND/OR OBSTRUCTIONS TO VISIBILITY.


NDZ001>003-009>011-017-021800-
NORTHWEST NORTH DAKOTA

CITY           SKY/WX    TMP DP  RH WIND       PRES   REMARKS
WILLISTON      MOSUNNY   76  60  57 N10       30.04F HAZE
MINOT          PTSUNNY   72  61  68 NW8       29.98S HAZE
MINOT AFB      SUNNY     76  67  75 NW8       29.97F FOG
$$

NDZ018>021-031>035-040>046-021800-
SOUTHWEST NORTH DAKOTA

CITY           SKY/WX    TMP DP  RH WIND       PRES   REMARKS
BISMARCK       MOSUNNY   75  64  68 VRB6      29.99F HAZE
DICKINSON      SUNNY     71  59  65 NW9       30.04S
GARRISON         N/A     74  64  71 NW7       30.00S
HETTINGER ARPT SUNNY     73  58  59 NW12      30.08R
$$

NDZ004>008-012>016-024-026-027-054-021800-
NORTHEAST NORTH DAKOTA

CITY           SKY/WX    TMP DP  RH WIND       PRES   REMARKS
GRAND FORKS    SUNNY     74  61  63 S12       29.94F
GRND FRKS AFB  SUNNY     75  62  65 SW13      29.95F
DEVILS LAKE    PTSUNNY   73  63  68 W6        29.95S
$$

NDZ022-023-025-028>030-036>039-047>053-021800-
SOUTHEAST NORTH DAKOTA

CITY           SKY/WX    TMP DP  RH WIND       PRES   REMARKS
FARGO          SUNNY     73  55  53 S15       29.98F
JAMESTOWN      MOSUNNY   73  65  75 S9        29.97S
$$




USA.gov is the U.S. government's official web portal to all federal, state and local government web resources and services.